This is the latest recevied weather packets stored in our database for station/object K5DLF-13. If no packets are shown the sender has not sent any weather packets the latest 10 day(s).
| Time | Temp. | Humidity | Pressure | Rain* | Wind** | Luminosity | Snow |
|---|---|---|---|---|---|---|---|
| 1777852801 | 22.78° C | 53% | 1015.8 hPa | 0 mm | - | 142 W/m² | - |
| 1777852502 | 23.33° C | 53% | 1015.7 hPa | 0 mm | - | 163 W/m² | - |
| 1777852202 | 23.33° C | 52% | 1015.8 hPa | 0 mm | - | 183 W/m² | - |
| 1777851901 | 23.33° C | 52% | 1015.9 hPa | 0 mm | - | 91 W/m² | - |
| 1777851601 | 23.33° C | 52% | 1016 hPa | 0 mm | - | 49 W/m² | - |
| 1777851302 | 23.33° C | 52% | 1016.1 hPa | 0 mm | - | 44 W/m² | - |
| 1777851002 | 23.33° C | 51% | 1016 hPa | 0 mm | - | 60 W/m² | - |
| 1777850702 | 23.89° C | 50% | 1016 hPa | 0 mm | - | 51 W/m² | - |
| 1777850401 | 23.89° C | 50% | 1016 hPa | 0 mm | - | 56 W/m² | - |
| 1777850102 | 23.89° C | 50% | 1016.1 hPa | 0 mm | - | 79 W/m² | - |
| 1777849802 | 23.89° C | 49% | 1016.2 hPa | 0 mm | - | 107 W/m² | - |
| 1777849502 | 24.44° C | 49% | 1016.2 hPa | 0 mm | - | 56 W/m² | - |
| 1777849202 | 24.44° C | 50% | 1016.3 hPa | 0 mm | - | 102 W/m² | - |
| 1777848902 | 24.44° C | 51% | 1016.3 hPa | 0 mm | - | 69 W/m² | - |
| 1777848602 | 25° C | 49% | 1016.2 hPa | 0 mm | - | 83 W/m² | - |
| 1777848302 | 25° C | 49% | 1016.5 hPa | 0 mm | - | 482 W/m² | - |
| 1777848002 | 25° C | 51% | 1016.5 hPa | 0 mm | - | 404 W/m² | - |
| 1777847702 | 25° C | 51% | 1016.5 hPa | 0 mm | - | 434 W/m² | - |
| 1777847402 | 25° C | 48% | 1016.6 hPa | 0 mm | - | 188 W/m² | - |
| 1777847102 | 25.56° C | 47% | 1016.6 hPa | 0 mm | - | 137 W/m² | - |
| 1777846802 | 25.56° C | 46% | 1016.5 hPa | 0 mm | - | 512 W/m² | - |
| 1777846502 | 25.56° C | 47% | 1016.6 hPa | 0 mm | - | 517 W/m² | - |
| 1777846202 | 25.56° C | 48% | 1016.6 hPa | 0 mm | - | 534 W/m² | - |
| 1777845902 | 25.56° C | 47% | 1016.5 hPa | 0 mm | - | 571 W/m² | - |
| 1777845602 | 26.11° C | 46% | 1016.5 hPa | 0 mm | - | 178 W/m² | - |
* Rain latest hour (hover to see other rain measurements)
** Current wind speed in m/s (hover to see current wind gust speed)